INTELSAT 37E (IS-37E) (42950 NORAD) Tracking and Keplerian Element Data

This shows tracking and keplerian element data for the satellite.

Feedback or suggestion? Click here.




ElementValue
Catalog42950
NameINTELSAT 37E (IS-37E)
Epoch Orbit308
Epoch Day201.22243513
Epoch Year2018
RAAN63.3898
Inclination0.0191
Eccentricity0.0002614
Argument of Perigee61.5144
Mean Anonmoly235.1203
Mean Motion1.0026983
Decay Rate-1.58E-06
L11 42950U 17059A 18201.22243513 -.00000158 00000-0 00000+0 0 9990
L22 42950 0.0191 63.3898 0002614 61.5144 235.1203 1.00269830 3080

Live tracking and technical data element details for INTELSAT 37E (IS-37E) (NORAD 42950). INTELSAT 37E (IS-37E) can be tracked NOW for your location showing map with azimuth and elevation plus other details from your city location.

Track the satellite on the map from your city or location and see movement details for azimuth, elevation, latitude, longitude, range, height, and movement on the map or in text.







IsCatalogInMostPopularTable: catalog: 42950, numindb: 151
Update: records affected: 1



GetName: 42950 INTELSAT 37E (IS-37E)

Hit Count: updated at: Sat, 21 Jul 2018 07:58:16 GMT